DMSP 5D-2 F13 DEB, 40395

Orbit data source: Space-Track

DMSP 5D-2 F13 DEB, 40395 is space debris in SSO originally from a launch on Fri, 24 Mar 1995 UTC launched from the Air Force Western Test Range (AFWTR). Debris objects in space refer to the collection of defunct objects orbiting the Earth. Examples of debris include non-operational satellites, rocket bodies, and fragments generated from explosions, collisions, or faulty payload assembly.

Loading next visibility...
Identifier
40395, 1995-015G
Orbit
SSO
Country
Flag of USUS
Related business
Manufacturer
Unknown
Mission
Spacecraft
Bus & Motor
Unknown
Mass
Unknown
Launch date (UTC)
1995-03-24 (31 years ago)
Launch vehicle
Unknown
Launch site
Air Force Western Test Range (AFWTR)
Object type
Payload
Rocket body
Debris
Shape & HBR
Unknown shape, 0.1 m
Radar Cross Section
Small (<0.1 m²)

Expand to show TLE details & history
Last TLE update: 8 hours ago

TLE from 8 hours ago
0 DMSP 5D-2 F13 DEB
1 40395U 95015G   25343.50485510  .00002195  00000-0  87535-3 0  9994
2 40395  98.6126   3.7370 0023758 110.5071 249.8664 14.29389181560573
Epoch: 2025-12-09T12:06Z
TLE epoch observation values (Epoch: 2025-12-09T12:06:59.480Z)
Latitude
-0.00002°
Longitude
103.50059°
Altitude
802.606 km
Speed
7.449 km/s
True Right ascension
00h 14m 56s
True Declination
0° 00' 00"
Sunlit
Object was in daylight at epoch
Visualization orbit readout
Latitude
Unknown
Longitude
Unknown
Altitude
Unknown
Speed
Unknown
Apparent Right ascension
Unknown
Apparent Declination
Unknown
Sunlit
N/A
Visualization observer readout
Local Sidereal Time
18:20:14
Azimuth
Unknown
Elevation
Unknown
Doppler factor
Unknown
Orbital elements
Apogee altitude
807.947 km
Perigee altitude
773.882 km
Semi-major axis
7,169.052 km
Eccentricity
0.00238
Inclination
98.6126°
RAAN
3.737°
Arg. of periapsis
110.5071°
True anomaly
249.61105°
Mean anomaly
249.8664°
Eccentric anomaly
249.7387°
Mean motion
3.57561 °/min
Orbital period
100.68 mins
BSTAR
0.00087535

Documentation

Showing up to 5 results
|